Terug naar catalogus

STARLINK-3757

ActiefCommunicatieVLEO
NORAD 52539·PAYLOAD·🇺🇸 United States

Gelanceerd May 13, 2022 vanaf Vandenberg Space Force Base

Loading…

Volgende Passages (komende 24 uur)

TLE

VersSource: CelesTrak SupGP

Epoch: Sep 15, 2026, 01:14 UTC

1 52539C 22051G   26258.05187500 -.00001923  00000+0 -58326-4 0  2585
2 52539  53.1589 347.3576 0001285  82.5072  45.7329 15.33560323    14

Volg STARLINK-3757 in realtime met AllMySat

Download on the App Store